| time (UTC) | temp C | wind direction | speed KPH | gust KPH | rain 1hr cm | rain 24hr cm | rain mn cm | humidity % | barometer mb |
| 20260508004616 | 8 | 279 | 0.0 | 0.0 | 0.00 | 0.03 | 0.03 | 64 | 1006.6 |
| 20260508004114 | 8 | 279 | 0.0 | 0.0 | 0.00 | 0.03 | 0.03 | 63 | 1006.5 |
| 20260508003610 | 8 | 279 | 0.0 | 0.0 | 0.00 | 0.03 | 0.03 | 63 | 1006.5 |
| 20260508003108 | 8 | 280 | 0.0 | 0.0 | 0.00 | 0.03 | 0.03 | 60 | 1006.6 |
| 20260508002604 | 8 | 280 | 1.6 | 1.6 | 0.00 | 0.03 | 0.03 | 60 | 1006.3 |
| 20260508002102 | 9 | 280 | 0.0 | 0.0 | 0.00 | 0.03 | 0.03 | 59 | 1006.1 |
| 20260508001557 | 10 | 279 | 0.0 | 0.0 | 0.00 | 0.03 | 0.03 | 57 | 1006.3 |
| 20260508001053 | 10 | 280 | 0.0 | 0.0 | 0.00 | 0.03 | 0.03 | 56 | 1005.9 |
| 20260508000549 | 10 | 279 | 0.0 | 0.0 | 0.00 | 0.03 | 0.03 | 54 | 1005.8 |
| 20260508000047 | 11 | 279 | 0.0 | 0.0 | 0.00 | 0.03 | 0.03 | 51 | 1006.0 |
| 20260507235543 | 11 | 279 | 0.0 | 1.6 | 0.00 | 0.03 | 0.03 | 46 | 1005.9 |
| 20260507235041 | 11 | 279 | 0.0 | 0.0 | 0.00 | 0.03 | 0.03 | 44 | 1005.9 |
| 20260507234537 | 12 | 280 | 0.0 | 0.0 | 0.00 | 0.03 | 0.03 | 46 | 1005.8 |
| 20260507234033 | 12 | 280 | 0.0 | 0.0 | 0.00 | 0.03 | 0.03 | 43 | 1005.9 |
| 20260507233530 | 12 | 280 | 0.0 | 0.0 | 0.00 | 0.03 | 0.03 | 41 | 1005.7 |
| 20260507233029 | 13 | 280 | 0.0 | 4.8 | 0.00 | 0.03 | 0.03 | 38 | 1005.8 |
| 20260507232525 | 13 | 272 | 3.2 | 4.8 | 0.00 | 0.03 | 0.03 | 37 | 1005.8 |
| 20260507232022 | 13 | 286 | 0.0 | 3.2 | 0.00 | 0.03 | 0.03 | 37 | 1005.5 |
| 20260507231519 | 13 | 273 | 1.6 | 3.2 | 0.00 | 0.03 | 0.03 | 38 | 1005.5 |
| 20260507231016 | 13 | 285 | 1.6 | 3.2 | 0.00 | 0.03 | 0.03 | 36 | 1005.4 |
| 20260507230513 | 13 | 302 | 3.2 | 4.8 | 0.00 | 0.03 | 0.03 | 35 | 1005.5 |
| 20260507230009 | 13 | 320 | 6.4 | 8.0 | 0.00 | 0.03 | 0.03 | 35 | 1005.5 |
| 20260507225504 | 14 | 290 | 4.8 | 8.0 | 0.00 | 0.03 | 0.03 | 35 | 1005.4 |
| 20260507225001 | 14 | 290 | 1.6 | 11.3 | 0.00 | 0.03 | 0.03 | 36 | 1005.1 |
| 20260507224456 | 14 | 310 | 3.2 | 4.8 | 0.00 | 0.03 | 0.03 | 34 | 1005.2 |
| 20260507223953 | 15 | 273 | 1.6 | 3.2 | 0.00 | 0.03 | 0.03 | 37 | 1005.2 |
| 20260507223449 | 15 | 267 | 0.0 | 3.2 | 0.00 | 0.03 | 0.03 | 36 | 1005.2 |
| 20260507222946 | 15 | 295 | 4.8 | 4.8 | 0.00 | 0.03 | 0.03 | 34 | 1005.3 |
| 20260507222443 | 15 | 291 | 3.2 | 9.7 | 0.00 | 0.03 | 0.03 | 34 | 1005.2 |
| 20260507221940 | 14 | 317 | 4.8 | 8.0 | 0.00 | 0.03 | 0.03 | 34 | 1005.0 |
| 20260507221437 | 14 | 314 | 4.8 | 9.7 | 0.00 | 0.03 | 0.03 | 34 | 1005.2 |
| 20260507220932 | 14 | 282 | 4.8 | 9.7 | 0.00 | 0.03 | 0.03 | 34 | 1005.2 |
| 20260507220425 | 15 | 315 | 4.8 | 9.7 | 0.00 | 0.03 | 0.03 | 35 | 1004.9 |
| 20260507215921 | 15 | 272 | 3.2 | 4.8 | 0.00 | 0.03 | 0.03 | 35 | 1004.9 |
| 20260507215417 | 15 | 335 | 8.0 | 11.3 | 0.00 | 0.03 | 0.03 | 34 | 1004.9 |
| 20260507214915 | 15 | 335 | 1.6 | 8.0 | 0.00 | 0.03 | 0.03 | 35 | 1005.1 |
| 20260507214413 | 15 | 306 | 4.8 | 9.7 | 0.00 | 0.03 | 0.03 | 34 | 1004.9 |
| 20260507213908 | 15 | 296 | 3.2 | 8.0 | 0.00 | 0.03 | 0.03 | 35 | 1005.1 |
| 20260507213405 | 15 | 328 | 6.4 | 9.7 | 0.00 | 0.03 | 0.03 | 36 | 1005.1 |
| 20260507212902 | 15 | 333 | 3.2 | 9.7 | 0.00 | 0.03 | 0.03 | 34 | 1005.0 |
| 20260507212358 | 14 | 281 | 1.6 | 8.0 | 0.00 | 0.03 | 0.03 | 35 | 1005.1 |
| 20260507211854 | 15 | 279 | 4.8 | 4.8 | 0.00 | 0.03 | 0.03 | 36 | 1004.9 |
| 20260507211351 | 15 | 309 | 3.2 | 4.8 | 0.00 | 0.03 | 0.03 | 34 | 1005.0 |
| 20260507210848 | 15 | 35 | 6.4 | 9.7 | 0.00 | 0.03 | 0.03 | 35 | 1005.1 |
| 20260507210345 | 15 | 303 | 4.8 | 8.0 | 0.00 | 0.03 | 0.03 | 33 | 1005.0 |
| 20260507205842 | 15 | 98 | 3.2 | 9.7 | 0.00 | 0.03 | 0.03 | 33 | 1004.9 |
| 20260507205338 | 15 | 294 | 4.8 | 9.7 | 0.00 | 0.03 | 0.03 | 33 | 1004.8 |
| 20260507204835 | 15 | 314 | 6.4 | 11.3 | 0.00 | 0.03 | 0.03 | 35 | 1004.9 |
| 20260507204332 | 16 | 280 | 1.6 | 11.3 | 0.00 | 0.03 | 0.03 | 33 | 1004.6 |
| 20260507203830 | 15 | 332 | 3.2 | 9.7 | 0.00 | 0.03 | 0.03 | 33 | 1004.7 |
| 20260507203328 | 15 | 326 | 6.4 | 9.7 | 0.00 | 0.03 | 0.03 | 33 | 1004.7 |
| 20260507202823 | 16 | 326 | 4.8 | 11.3 | 0.00 | 0.03 | 0.03 | 32 | 1004.7 |
| 20260507202320 | 16 | 269 | 1.6 | 4.8 | 0.00 | 0.03 | 0.03 | 34 | 1004.8 |
| 20260507201815 | 16 | 249 | 1.6 | 4.8 | 0.00 | 0.03 | 0.03 | 34 | 1004.8 |
| 20260507201311 | 16 | 349 | 8.0 | 12.9 | 0.00 | 0.03 | 0.03 | 33 | 1004.7 |
| 20260507200808 | 15 | 275 | 1.6 | 11.3 | 0.00 | 0.03 | 0.03 | 33 | 1004.5 |
| 20260507200304 | 16 | 352 | 4.8 | 9.7 | 0.00 | 0.03 | 0.03 | 34 | 1004.6 |
| 20260507195800 | 16 | 9 | 4.8 | 11.3 | 0.00 | 0.03 | 0.03 | 33 | 1004.6 |
| 20260507195257 | 16 | 286 | 3.2 | 9.7 | 0.00 | 0.03 | 0.03 | 33 | 1004.7 |
| 20260507194755 | 16 | 316 | 1.6 | 8.0 | 0.00 | 0.03 | 0.03 | 34 | 1004.8 |
| 20260507194250 | 16 | 301 | 1.6 | 3.2 | 0.00 | 0.03 | 0.03 | 33 | 1004.7 |
| 20260507193747 | 16 | 282 | 1.6 | 11.3 | 0.00 | 0.03 | 0.03 | 33 | 1004.8 |
| 20260507193244 | 16 | 56 | 3.2 | 3.2 | 0.00 | 0.03 | 0.03 | 32 | 1004.7 |
| 20260507192740 | 16 | 280 | 4.8 | 8.0 | 0.00 | 0.03 | 0.03 | 33 | 1004.9 |
| 20260507192237 | 16 | 325 | 6.4 | 12.9 | 0.00 | 0.03 | 0.03 | 32 | 1004.9 |
| 20260507191733 | 15 | 298 | 0.0 | 11.3 | 0.00 | 0.03 | 0.03 | 34 | 1005.0 |
| 20260507191230 | 15 | 356 | 6.4 | 9.7 | 0.00 | 0.03 | 0.03 | 34 | 1005.1 |
| 20260507190727 | 16 | 263 | 6.4 | 12.9 | 0.00 | 0.03 | 0.03 | 34 | 1005.2 |
| 20260507190225 | 16 | 349 | 11.3 | 20.9 | 0.00 | 0.03 | 0.03 | 32 | 1005.1 |
| 20260507185724 | 16 | 346 | 4.8 | 11.3 | 0.00 | 0.03 | 0.03 | 32 | 1005.1 |
| 20260507185220 | 16 | 252 | 4.8 | 9.7 | 0.00 | 0.03 | 0.03 | 31 | 1005.0 |
| 20260507184718 | 16 | 194 | 1.6 | 8.0 | 0.00 | 0.03 | 0.03 | 34 | 1005.1 |
| 20260507184215 | 16 | 300 | 4.8 | 14.5 | 0.00 | 0.03 | 0.03 | 33 | 1005.0 |
| 20260507183712 | 16 | 314 | 8.0 | 11.3 | 0.00 | 0.03 | 0.03 | 33 | 1005.2 |
| 20260507183209 | 16 | 16 | 3.2 | 3.2 | 0.00 | 0.03 | 0.03 | 33 | 1005.0 |
| 20260507182706 | 15 | 279 | 1.6 | 4.8 | 0.00 | 0.03 | 0.03 | 35 | 1005.3 |
| 20260507182201 | 16 | 290 | 4.8 | 9.7 | 0.00 | 0.03 | 0.03 | 35 | 1005.2 |
| 20260507181658 | 16 | 244 | 1.6 | 12.9 | 0.00 | 0.03 | 0.03 | 35 | 1005.2 |
| 20260507181154 | 16 | 277 | 4.8 | 8.0 | 0.00 | 0.03 | 0.03 | 36 | 1005.0 |
| 20260507180651 | 16 | 336 | 4.8 | 11.3 | 0.00 | 0.03 | 0.03 | 35 | 1005.2 |
| 20260507180148 | 16 | 329 | 6.4 | 11.3 | 0.00 | 0.03 | 0.03 | 32 | 1005.3 |
| 20260507175643 | 16 | 359 | 4.8 | 9.7 | 0.00 | 0.03 | 0.03 | 35 | 1005.0 |
| 20260507175141 | 16 | 38 | 1.6 | 3.2 | 0.00 | 0.03 | 0.03 | 36 | 1005.2 |
| 20260507174638 | 16 | 273 | 1.6 | 11.3 | 0.00 | 0.03 | 0.03 | 43 | 1005.4 |
| 20260507174137 | 15 | 340 | 6.4 | 14.5 | 0.00 | 0.03 | 0.03 | 44 | 1005.5 |
| 20260507173633 | 15 | 315 | 8.0 | 11.3 | 0.00 | 0.03 | 0.03 | 44 | 1005.3 |
| 20260507173130 | 15 | 346 | 6.4 | 14.5 | 0.00 | 0.03 | 0.03 | 47 | 1005.6 |
| 20260507172626 | 16 | 353 | 4.8 | 8.0 | 0.00 | 0.03 | 0.03 | 45 | 1005.5 |
| 20260507172124 | 15 | 285 | 3.2 | 4.8 | 0.00 | 0.03 | 0.03 | 46 | 1005.5 |
| 20260507171618 | 14 | 300 | 6.4 | 11.3 | 0.00 | 0.03 | 0.03 | 46 | 1005.8 |
| 20260507171116 | 15 | 284 | 8.0 | 12.9 | 0.00 | 0.03 | 0.03 | 47 | 1005.8 |
| 20260507170613 | 16 | 272 | 1.6 | 4.8 | 0.00 | 0.03 | 0.03 | 50 | 1005.8 |
| 20260507170110 | 16 | 295 | 3.2 | 4.8 | 0.00 | 0.03 | 0.03 | 47 | 1005.9 |
| 20260507165605 | 15 | 292 | 3.2 | 4.8 | 0.00 | 0.03 | 0.03 | 47 | 1005.8 |
| 20260507165102 | 14 | 354 | 4.8 | 8.0 | 0.00 | 0.03 | 0.03 | 50 | 1005.9 |
| 20260507164558 | 14 | 317 | 3.2 | 8.0 | 0.00 | 0.03 | 0.03 | 49 | 1005.8 |
| 20260507164055 | 14 | 346 | 4.8 | 12.9 | 0.00 | 0.03 | 0.03 | 48 | 1006.1 |
| 20260507163553 | 13 | 306 | 4.8 | 9.7 | 0.00 | 0.03 | 0.03 | 51 | 1006.0 |
| 20260507163051 | 13 | 289 | 4.8 | 8.0 | 0.00 | 0.03 | 0.03 | 51 | 1006.2 |
| 20260507162550 | 13 | 279 | 8.0 | 14.5 | 0.00 | 0.03 | 0.03 | 50 | 1006.1 |
| 20260507162048 | 15 | 314 | 1.6 | 4.8 | 0.00 | 0.03 | 0.03 | 50 | 1006.1 |
| 20260507161544 | 15 | 260 | 1.6 | 3.2 | 0.00 | 0.03 | 0.03 | 51 | 1006.1 |
| 20260507161040 | 15 | 326 | 1.6 | 8.0 | 0.00 | 0.03 | 0.03 | 54 | 1006.0 |
| 20260507160537 | 15 | 274 | 0.0 | 8.0 | 0.00 | 0.03 | 0.03 | 49 | 1006.1 |
| 20260507160033 | 15 | 49 | 4.8 | 11.3 | 0.00 | 0.03 | 0.03 | 48 | 1006.4 |
| 20260507155528 | 15 | 295 | 4.8 | 11.3 | 0.00 | 0.03 | 0.03 | 52 | 1006.3 |
| 20260507155026 | 15 | 298 | 4.8 | 9.7 | 0.00 | 0.03 | 0.03 | 51 | 1006.3 |
| 20260507154523 | 15 | 295 | 4.8 | 8.0 | 0.00 | 0.03 | 0.03 | 48 | 1006.4 |
| 20260507154020 | 15 | 309 | 1.6 | 8.0 | 0.00 | 0.03 | 0.03 | 52 | 1006.4 |
| 20260507153516 | 15 | 272 | 0.0 | 8.0 | 0.00 | 0.03 | 0.03 | 54 | 1006.4 |
| 20260507153013 | 14 | 267 | 0.0 | 9.7 | 0.00 | 0.03 | 0.03 | 54 | 1006.6 |
| 20260507152508 | 15 | 293 | 4.8 | 11.3 | 0.00 | 0.03 | 0.03 | 53 | 1006.5 |
| 20260507152005 | 14 | 328 | 4.8 | 8.0 | 0.00 | 0.03 | 0.03 | 54 | 1006.5 |
| 20260507151501 | 13 | 314 | 4.8 | 8.0 | 0.00 | 0.03 | 0.03 | 58 | 1006.4 |
| 20260507150959 | 13 | 282 | 1.6 | 4.8 | 0.00 | 0.03 | 0.03 | 58 | 1006.6 |
| 20260507150455 | 14 | 314 | 4.8 | 9.7 | 0.00 | 0.03 | 0.03 | 56 | 1006.6 |
| 20260507145951 | 13 | 291 | 3.2 | 8.0 | 0.00 | 0.03 | 0.03 | 58 | 1006.4 |
| 20260507145447 | 15 | 289 | 6.4 | 8.0 | 0.00 | 0.03 | 0.03 | 53 | 1006.5 |
| 20260507144945 | 15 | 53 | 4.8 | 4.8 | 0.00 | 0.03 | 0.03 | 52 | 1006.4 |
| 20260507144441 | 15 | 280 | 3.2 | 8.0 | 0.00 | 0.03 | 0.03 | 51 | 1006.5 |
| 20260507143938 | 15 | 275 | 4.8 | 11.3 | 0.00 | 0.03 | 0.03 | 49 | 1006.4 |
| 20260507143436 | 15 | 255 | 1.6 | 3.2 | 0.00 | 0.03 | 0.03 | 52 | 1006.4 |
| 20260507142932 | 15 | 17 | 3.2 | 8.0 | 0.00 | 0.03 | 0.03 | 52 | 1006.3 |
| 20260507142428 | 15 | 340 | 4.8 | 8.0 | 0.00 | 0.03 | 0.03 | 54 | 1006.3 |
| 20260507141926 | 15 | 295 | 1.6 | 4.8 | 0.00 | 0.03 | 0.03 | 56 | 1006.5 |
| 20260507141421 | 14 | 324 | 3.2 | 8.0 | 0.00 | 0.03 | 0.03 | 57 | 1006.7 |
| 20260507140918 | 14 | 318 | 1.6 | 4.8 | 0.00 | 0.03 | 0.03 | 58 | 1006.6 |
| 20260507140415 | 14 | 295 | 3.2 | 8.0 | 0.00 | 0.03 | 0.03 | 58 | 1006.8 |
| 20260507135913 | 13 | 301 | 3.2 | 3.2 | 0.00 | 0.03 | 0.03 | 60 | 1006.6 |
| 20260507135409 | 13 | 347 | 3.2 | 3.2 | 0.00 | 0.03 | 0.03 | 59 | 1006.7 |
| 20260507134907 | 13 | 108 | 1.6 | 3.2 | 0.00 | 0.03 | 0.03 | 60 | 1006.7 |
| 20260507134403 | 13 | 280 | 3.2 | 4.8 | 0.00 | 0.03 | 0.03 | 60 | 1006.7 |
| 20260507133859 | 13 | 242 | 3.2 | 4.8 | 0.00 | 0.03 | 0.03 | 60 | 1006.8 |
| 20260507133355 | 13 | 288 | 3.2 | 4.8 | 0.00 | 0.03 | 0.03 | 64 | 1006.9 |
| 20260507132854 | 13 | 288 | 4.8 | 8.0 | 0.00 | 0.03 | 0.03 | 62 | 1007.0 |
| 20260507132349 | 13 | 344 | 3.2 | 4.8 | 0.00 | 0.03 | 0.03 | 64 | 1006.9 |
| 20260507131847 | 12 | 279 | 3.2 | 3.2 | 0.00 | 0.03 | 0.03 | 65 | 1007.2 |
| 20260507131343 | 13 | 342 | 1.6 | 3.2 | 0.00 | 0.03 | 0.03 | 67 | 1006.9 |
| 20260507130840 | 12 | 308 | 3.2 | 4.8 | 0.00 | 0.03 | 0.03 | 65 | 1007.2 |
| 20260507130337 | 12 | 324 | 3.2 | 4.8 | 0.00 | 0.03 | 0.03 | 65 | 1007.2 |
| 20260507125837 | 12 | 316 | 1.6 | 4.8 | 0.00 | 0.03 | 0.03 | 70 | 1007.2 |
| 20260507125333 | 12 | 286 | 1.6 | 3.2 | 0.00 | 0.03 | 0.03 | 72 | 1007.2 |
| 20260507124831 | 12 | 334 | 1.6 | 3.2 | 0.00 | 0.03 | 0.03 | 70 | 1007.3 |
| 20260507124327 | 12 | 291 | 1.6 | 9.7 | 0.00 | 0.03 | 0.03 | 72 | 1007.1 |
| 20260507123826 | 11 | 314 | 1.6 | 8.0 | 0.00 | 0.03 | 0.03 | 74 | 1007.3 |
| 20260507123322 | 11 | 263 | 1.6 | 3.2 | 0.00 | 0.03 | 0.03 | 75 | 1007.2 |
| 20260507122818 | 11 | 297 | 1.6 | 1.6 | 0.00 | 0.03 | 0.03 | 77 | 1007.2 |
| 20260507122314 | 11 | 277 | 1.6 | 3.2 | 0.00 | 0.03 | 0.03 | 76 | 1007.3 |
| 20260507121810 | 10 | 312 | 1.6 | 4.8 | 0.00 | 0.03 | 0.03 | 79 | 1007.4 |
| 20260507121306 | 10 | 64 | 1.6 | 3.2 | 0.00 | 0.03 | 0.03 | 79 | 1007.3 |
| 20260507120803 | 10 | 271 | 0.0 | 4.8 | 0.00 | 0.03 | 0.03 | 81 | 1007.3 |
| 20260507120259 | 10 | 285 | 1.6 | 3.2 | 0.00 | 0.03 | 0.03 | 86 | 1007.3 |
| 20260507115755 | 10 | 254 | 0.0 | 1.6 | 0.00 | 0.03 | 0.03 | 87 | 1007.4 |
| 20260507115251 | 9 | 275 | 0.0 | 0.0 | 0.00 | 0.03 | 0.03 | 87 | 1007.3 |
| 20260507114747 | 8 | 279 | 0.0 | 1.6 | 0.00 | 0.03 | 0.03 | 89 | 1007.3 |
| 20260507114245 | 8 | 281 | 1.6 | 1.6 | 0.00 | 0.03 | 0.03 | 93 | 1007.4 |
| 20260507113742 | 8 | 287 | 1.6 | 1.6 | 0.00 | 0.03 | 0.03 | 95 | 1007.3 |
| 20260507113238 | 8 | 281 | 0.0 | 1.6 | 0.00 | 0.03 | 0.03 | 98 | 1007.3 |
| 20260507112737 | 8 | 281 | 0.0 | 1.6 | 0.00 | 0.03 | 0.03 | 98 | 1007.4 |
| 20260507112233 | 7 | 287 | 1.6 | 1.6 | 0.00 | 0.03 | 0.03 | 98 | 1007.0 |
| 20260507111731 | 7 | 275 | 0.0 | 0.0 | 0.00 | 0.03 | 0.03 | 98 | 1007.0 |
| 20260507111227 | 7 | 275 | 0.0 | 1.6 | 0.00 | 0.03 | 0.03 | 98 | 1007.1 |
| 20260507110723 | 7 | 272 | 0.0 | 0.0 | 0.00 | 0.03 | 0.03 | 98 | 1007.3 |
| 20260507110220 | 7 | 274 | 0.0 | 1.6 | 0.00 | 0.03 | 0.03 | 98 | 1007.4 |
| 20260507105717 | 7 | 275 | 0.0 | 0.0 | 0.00 | 0.03 | 0.03 | 98 | 1007.4 |
| 20260507105213 | 8 | 274 | 0.0 | 0.0 | 0.00 | 0.03 | 0.03 | 99 | 1007.5 |
| 20260507104710 | 8 | 279 | 0.0 | 0.0 | 0.00 | 0.03 | 0.03 | 99 | 1007.3 |
| 20260507104207 | 7 | 279 | 0.0 | 0.0 | 0.00 | 0.03 | 0.03 | 99 | 1006.9 |
| 20260507103703 | 8 | 281 | 0.0 | 0.0 | 0.00 | 0.03 | 0.03 | 99 | 1007.3 |
| 20260507103159 | 7 | 271 | 0.0 | 0.0 | 0.00 | 0.03 | 0.03 | 99 | 1007.7 |
| 20260507102656 | 7 | 274 | 0.0 | 0.0 | 0.00 | 0.03 | 0.03 | 99 | 1007.6 |
| 20260507102152 | 7 | 271 | 0.0 | 0.0 | 0.00 | 0.03 | 0.03 | 98 | 1007.1 |
| 20260507101648 | 7 | 275 | 0.0 | 0.0 | 0.00 | 0.03 | 0.03 | 98 | 1007.3 |
| 20260507101144 | 7 | 285 | 0.0 | 1.6 | 0.00 | 0.03 | 0.03 | 98 | 1007.7 |
| 20260507100641 | 7 | 282 | 1.6 | 1.6 | 0.00 | 0.03 | 0.03 | 98 | 1007.5 |
| 20260507100140 | 7 | 275 | 0.0 | 0.0 | 0.00 | 0.03 | 0.03 | 98 | 1007.3 |
| 20260507095637 | 7 | 281 | 0.0 | 0.0 | 0.00 | 0.03 | 0.03 | 97 | 1007.5 |
| 20260507095134 | 7 | 275 | 0.0 | 0.0 | 0.00 | 0.03 | 0.03 | 97 | 1007.2 |
| 20260507094630 | 7 | 274 | 0.0 | 0.0 | 0.00 | 0.03 | 0.03 | 97 | 1007.5 |
| 20260507094127 | 7 | 273 | 0.0 | 0.0 | 0.00 | 0.03 | 0.03 | 97 | 1007.4 |
| 20260507093624 | 7 | 274 | 0.0 | 1.6 | 0.00 | 0.03 | 0.03 | 97 | 1007.3 |
| 20260507093123 | 7 | 277 | 0.0 | 1.6 | 0.00 | 0.03 | 0.03 | 96 | 1007.1 |
| 20260507092619 | 7 | 273 | 0.0 | 0.0 | 0.00 | 0.03 | 0.03 | 96 | 1007.0 |
| 20260507092116 | 7 | 268 | 0.0 | 0.0 | 0.00 | 0.03 | 0.03 | 96 | 1007.0 |
| 20260507091613 | 7 | 272 | 0.0 | 0.0 | 0.00 | 0.03 | 0.03 | 96 | 1006.9 |
| 20260507091108 | 7 | 281 | 0.0 | 1.6 | 0.00 | 0.03 | 0.03 | 96 | 1006.7 |
| 20260507090604 | 7 | 280 | 0.0 | 3.2 | 0.00 | 0.03 | 0.03 | 97 | 1006.7 |
| 20260507085558 | 8 | 295 | 0.0 | 1.6 | 0.00 | 0.03 | 0.03 | 99 | 1006.7 |
| 20260507085055 | 8 | 270 | 0.0 | 0.0 | 0.00 | 0.03 | 0.03 | 99 | 1007.2 |
| 20260507084552 | 8 | 277 | 0.0 | 0.0 | 0.00 | 0.03 | 0.03 | 99 | 1007.0 |
| 20260507084049 | 8 | 275 | 0.0 | 1.6 | 0.00 | 0.03 | 0.03 | 99 | 1006.9 |
| 20260507083545 | 8 | 283 | 0.0 | 1.6 | 0.00 | 0.03 | 0.03 | 99 | 1006.6 |
| 20260507083042 | 8 | 272 | 0.0 | 0.0 | 0.00 | 0.03 | 0.03 | 99 | 1007.1 |
| 20260507082538 | 8 | 273 | 0.0 | 0.0 | 0.00 | 0.03 | 0.03 | 99 | 1007.2 |
| 20260507082035 | 8 | 269 | 0.0 | 0.0 | 0.00 | 0.03 | 0.03 | 99 | 1007.2 |
| 20260507081531 | 8 | 272 | 0.0 | 0.0 | 0.00 | 0.03 | 0.03 | 99 | 1006.9 |
| 20260507081028 | 8 | 270 | 0.0 | 1.6 | 0.00 | 0.03 | 0.03 | 99 | 1006.7 |
| 20260507080524 | 8 | 298 | 1.6 | 1.6 | 0.00 | 0.03 | 0.03 | 99 | 1006.5 |
| 20260507080021 | 8 | 285 | 1.6 | 1.6 | 0.00 | 0.03 | 0.03 | 98 | 1006.4 |
| 20260507075516 | 8 | 280 | 0.0 | 0.0 | 0.00 | 0.03 | 0.03 | 98 | 1006.4 |
| 20260507075013 | 8 | 272 | 0.0 | 1.6 | 0.00 | 0.03 | 0.03 | 98 | 1006.7 |
| 20260507074509 | 8 | 276 | 0.0 | 1.6 | 0.00 | 0.03 | 0.03 | 99 | 1006.6 |
| 20260507074008 | 8 | 270 | 0.0 | 0.0 | 0.00 | 0.03 | 0.03 | 99 | 1006.3 |
| 20260507073504 | 8 | 269 | 0.0 | 0.0 | 0.00 | 0.03 | 0.03 | 99 | 1006.3 |
| 20260507073000 | 8 | 272 | 0.0 | 1.6 | 0.00 | 0.03 | 0.03 | 99 | 1006.4 |
| 20260507072457 | 8 | 287 | 1.6 | 4.8 | 0.00 | 0.03 | 0.03 | 99 | 1006.4 |
| 20260507071949 | 9 | 275 | 0.0 | 0.0 | 0.00 | 0.03 | 0.03 | 99 | 1006.3 |
| 20260507071446 | 9 | 264 | 0.0 | 1.6 | 0.00 | 0.03 | 0.03 | 99 | 1006.2 |
| 20260507070943 | 9 | 291 | 1.6 | 1.6 | 0.00 | 0.03 | 0.03 | 99 | 1006.1 |
| 20260507070440 | 9 | 273 | 0.0 | 0.0 | 0.00 | 0.03 | 0.03 | 99 | 1006.3 |
| 20260507065937 | 9 | 268 | 0.0 | 0.0 | 0.00 | 0.03 | 0.03 | 99 | 1006.0 |
| 20260507065433 | 10 | 272 | 0.0 | 1.6 | 0.00 | 0.03 | 0.03 | 99 | 1006.3 |
| 20260507064931 | 10 | 272 | 0.0 | 0.0 | 0.00 | 0.03 | 0.03 | 99 | 1006.3 |
| 20260507064429 | 10 | 267 | 0.0 | 0.0 | 0.00 | 0.03 | 0.03 | 99 | 1005.9 |
| 20260507063927 | 10 | 272 | 0.0 | 1.6 | 0.00 | 0.03 | 0.03 | 99 | 1005.9 |
| 20260507063423 | 10 | 266 | 0.0 | 0.0 | 0.00 | 0.03 | 0.03 | 99 | 1005.9 |
| 20260507062920 | 10 | 274 | 0.0 | 0.0 | 0.00 | 0.03 | 0.03 | 99 | 1005.9 |
| 20260507062417 | 10 | 277 | 0.0 | 1.6 | 0.00 | 0.03 | 0.03 | 99 | 1006.0 |
| 20260507061915 | 10 | 270 | 0.0 | 0.0 | 0.00 | 0.03 | 0.03 | 99 | 1005.8 |
| 20260507061413 | 10 | 270 | 0.0 | 0.0 | 0.00 | 0.03 | 0.03 | 99 | 1005.7 |
| 20260507060911 | 10 | 277 | 0.0 | 1.6 | 0.00 | 0.03 | 0.03 | 99 | 1005.7 |
| 20260507060407 | 10 | 319 | 1.6 | 1.6 | 0.00 | 0.03 | 0.03 | 99 | 1005.8 |
| 20260507055904 | 10 | 300 | 1.6 | 1.6 | 0.00 | 0.03 | 0.03 | 99 | 1005.6 |
| 20260507055359 | 10 | 285 | 1.6 | 1.6 | 0.00 | 0.03 | 0.03 | 99 | 1005.5 |
| 20260507054856 | 10 | 287 | 1.6 | 3.2 | 0.00 | 0.03 | 0.03 | 99 | 1005.8 |
| 20260507054352 | 10 | 273 | 0.0 | 3.2 | 0.00 | 0.03 | 0.03 | 99 | 1005.6 |
| 20260507053850 | 10 | 274 | 0.0 | 1.6 | 0.00 | 0.03 | 0.03 | 99 | 1005.3 |
| 20260507053347 | 10 | 280 | 1.6 | 1.6 | 0.00 | 0.03 | 0.03 | 99 | 1005.7 |
| 20260507052846 | 10 | 272 | 0.0 | 1.6 | 0.00 | 0.03 | 0.03 | 99 | 1005.4 |
| 20260507052342 | 10 | 284 | 1.6 | 1.6 | 0.00 | 0.03 | 0.03 | 99 | 1005.2 |
| 20260507051840 | 10 | 283 | 0.0 | 0.0 | 0.00 | 0.03 | 0.03 | 99 | 1005.2 |
| 20260507051338 | 10 | 270 | 0.0 | 1.6 | 0.00 | 0.03 | 0.03 | 99 | 1005.5 |
| 20260507050834 | 10 | 282 | 1.6 | 3.2 | 0.00 | 0.03 | 0.03 | 98 | 1005.4 |
| 20260507050330 | 10 | 293 | 3.2 | 4.8 | 0.00 | 0.03 | 0.03 | 98 | 1005.6 |
| 20260507045827 | 11 | 276 | 0.0 | 1.6 | 0.00 | 0.03 | 0.03 | 98 | 1005.4 |
| 20260507045324 | 11 | 298 | 1.6 | 3.2 | 0.00 | 0.03 | 0.03 | 98 | 1005.2 |
| 20260507044821 | 11 | 291 | 1.6 | 3.2 | 0.00 | 0.03 | 0.03 | 98 | 1005.3 |
| 20260507044318 | 11 | 293 | 1.6 | 3.2 | 0.00 | 0.03 | 0.03 | 98 | 1005.2 |
| 20260507043814 | 11 | 305 | 3.2 | 3.2 | 0.00 | 0.03 | 0.03 | 98 | 1005.0 |
| 20260507043311 | 11 | 334 | 4.8 | 8.0 | 0.00 | 0.03 | 0.03 | 98 | 1005.1 |
| 20260507042807 | 11 | 277 | 1.6 | 3.2 | 0.00 | 0.03 | 0.03 | 98 | 1004.9 |
| 20260507042306 | 11 | 283 | 1.6 | 1.6 | 0.00 | 0.03 | 0.03 | 98 | 1004.9 |
| 20260507041800 | 11 | 293 | 1.6 | 3.2 | 0.13 | 0.03 | 0.03 | 97 | 1005.1 |
| 20260507041256 | 11 | 295 | 1.6 | 1.6 | 0.00 | 0.00 | 0.00 | 97 | 1005.0 |
| 20260507040753 | 11 | 297 | 1.6 | 3.2 | 0.00 | 0.00 | 0.00 | 97 | 1004.9 |
| 20260507040249 | 11 | 285 | 3.2 | 3.2 | 0.18 | 0.00 | 0.00 | 97 | 1005.1 |
| 20260507035745 | 11 | 280 | 1.6 | 1.6 | 0.48 | 1.55 | 1.55 | 96 | 1004.9 |
| 20260507035241 | 12 | 262 | 3.2 | 3.2 | 0.61 | 1.52 | 1.52 | 96 | 1004.9 |
| 20260507034739 | 12 | 287 | 1.6 | 9.7 | 0.18 | 1.45 | 1.45 | 96 | 1004.9 |
| 20260507034235 | 12 | 310 | 8.0 | 9.7 | 0.00 | 1.42 | 1.42 | 96 | 1004.9 |
| 20260507033734 | 12 | 336 | 4.8 | 9.7 | 0.00 | 1.42 | 1.42 | 97 | 1005.0 |
| 20260507033231 | 12 | 285 | 0.0 | 3.2 | 0.00 | 1.42 | 1.42 | 98 | 1004.9 |
| 20260507032728 | 12 | 292 | 3.2 | 4.8 | 0.00 | 1.42 | 1.42 | 98 | 1004.8 |
| 20260507032224 | 13 | 291 | 3.2 | 4.8 | 0.00 | 1.42 | 1.42 | 98 | 1004.5 |
| 20260507031721 | 13 | 277 | 0.0 | 3.2 | 0.00 | 1.42 | 1.42 | 98 | 1004.4 |
| 20260507031217 | 13 | 283 | 3.2 | 9.7 | 0.00 | 1.42 | 1.42 | 99 | 1004.5 |
| 20260507030714 | 13 | 318 | 4.8 | 4.8 | 0.00 | 1.42 | 1.42 | 99 | 1004.3 |
| 20260507030212 | 13 | 300 | 1.6 | 3.2 | 0.00 | 1.42 | 1.42 | 99 | 1004.3 |
| 20260507025709 | 13 | 332 | 3.2 | 3.2 | 0.13 | 1.42 | 1.42 | 99 | 1004.2 |
| 20260507025206 | 13 | 275 | 1.6 | 4.8 | 0.13 | 1.42 | 1.42 | 99 | 1004.4 |
| 20260507024704 | 13 | 289 | 0.0 | 4.8 | 0.00 | 1.40 | 1.40 | 99 | 1004.5 |
| 20260507024201 | 14 | 262 | 0.0 | 3.2 | 0.00 | 1.40 | 1.40 | 99 | 1004.5 |
| 20260507023656 | 14 | 298 | 1.6 | 4.8 | 0.00 | 1.40 | 1.40 | 99 | 1004.4 |
| 20260507023154 | 14 | 305 | 3.2 | 4.8 | 0.00 | 1.40 | 1.40 | 99 | 1004.4 |
| 20260507022651 | 14 | 262 | 1.6 | 1.6 | 0.00 | 1.40 | 1.40 | 99 | 1004.4 |
| 20260507022146 | 14 | 275 | 1.6 | 3.2 | 0.00 | 1.40 | 1.40 | 99 | 1004.6 |
| 20260507021643 | 14 | 265 | 0.0 | 0.0 | 0.00 | 1.40 | 1.40 | 99 | 1004.5 |
| 20260507021138 | 14 | 251 | 0.0 | 3.2 | 0.00 | 1.40 | 1.40 | 99 | 1004.4 |
| 20260507020637 | 14 | 257 | 1.6 | 4.8 | 0.00 | 1.40 | 1.40 | 99 | 1004.6 |
| 20260507020132 | 14 | 247 | 1.6 | 1.6 | 0.00 | 1.40 | 1.40 | 99 | 1004.6 |
| 20260507015631 | 14 | 250 | 1.6 | 4.8 | 0.00 | 1.40 | 1.40 | 99 | 1004.5 |
| 20260507015128 | 14 | 261 | 1.6 | 3.2 | 0.00 | 1.40 | 1.40 | 99 | 1004.5 |
| 20260507014625 | 14 | 250 | 1.6 | 1.6 | 0.00 | 1.40 | 1.40 | 99 | 1004.6 |
| 20260507014121 | 14 | 261 | 3.2 | 3.2 | 0.00 | 1.40 | 1.40 | 99 | 1004.6 |
| 20260507013618 | 14 | 246 | 1.6 | 3.2 | 0.00 | 1.40 | 1.40 | 99 | 1004.8 |
| 20260507013115 | 13 | 253 | 1.6 | 4.8 | 0.00 | 1.40 | 1.40 | 99 | 1004.7 |
| 20260507012612 | 13 | 255 | 1.6 | 3.2 | 0.00 | 1.40 | 1.40 | 99 | 1004.9 |
| 20260507012107 | 13 | 260 | 1.6 | 1.6 | 0.00 | 1.40 | 1.40 | 99 | 1004.8 |
| 20260507011606 | 13 | 259 | 0.0 | 1.6 | 0.18 | 1.40 | 1.40 | 99 | 1004.7 |
| 20260507011101 | 13 | 266 | 0.0 | 3.2 | 0.18 | 1.40 | 1.40 | 99 | 1004.8 |
| 20260507010556 | 13 | 262 | 0.0 | 1.6 | 0.00 | 1.37 | 1.37 | 99 | 1004.8 |
| 20260507010053 | 13 | 259 | 0.0 | 0.0 | 0.00 | 1.37 | 1.37 | 99 | 1004.8 |
| 20260507005550 | 13 | 241 | 1.6 | 1.6 | 0.00 | 1.37 | 1.37 | 99 | 1005.0 |
| 20260507005046 | 13 | 246 | 1.6 | 1.6 | 0.00 | 1.37 | 1.37 | 99 | 1004.9 |